FENGYUN 1C DEB

Satellite information

Favourite Embed

Satellite Type and Status

DEBRISIN ORBIT

Key statistics

Satellite FENGYUN 1C DEB at a glance.

Uptime

9609

Days in orbit

Revolutions

≈ 14.2

Per day

Orbit

SSO

Sun Synchronous Orbit

Inclination

99.1

Latest

Satellite identification and parameters

Extended collection of information and parameters for FENGYUN 1C DEB.

Object identification

Identified? True

Debris? True

Object name: FENGYUN 1C DEB

International designator: 1999-025APU

Object number (NORAD): 30662

Object ID (CCSDS): 30662

Country: PEOPLES REPUBLIC OF CHINA (PRC)

Current information (Y/N): Y

RCS size: SMALL

Orbital parameters

Period: 101.306 minutes

Inclination: 99.0624 deg

SMA: 7198.66 km

Apoapsis: 844.584 km

Periapsis: 796.466 km

RAAN: 286.9235 deg

Eccentricy: 0.0033421

Argument of periapsis: 232.9395 deg

Mean anomaly: 280.95 deg

Mean motion: 14.21429346 rev/day

Mean motion (dot): 0.00001758 rev/day2

B* drag term: 0.00082106223 1/REarth

Two-line elements (TLE)

Creation date: Aug. 22, 2025, 9:09 p.m.

Reference frame: TEME

Reference center: EARTH

Epoch: Aug. 21, 2025, 2:59 p.m. UTC

TLE line 0: 0 FENGYUN 1C DEB

TLE line 1: 1 30662U 99025APU 25233.62487142 .00001758 00000-0 82106-3 0 9992

TLE line 2: 2 30662 99.0624 286.9235 0033421 232.9395 280.9500 14.21429346950318

Live tracking on map

Real-time ground track for satellite FENGYUN 1C DEB.

In-orbit conjunctions

A list of the most updated potential collisions computed for object FENGYUN 1C DEB.

Target Orbit TCA Probability of collision Miss distance Type
CZ-6A DEB LEO 2025-01-29 22:57:15 0.0001443223 323.0 (m) DEBRIS
CZ-6A DEB LEO 2025-01-18 18:52:00 0.0001317741 480.0 (m) DEBRIS

Associated space launch

Chinese polar orbiting meteorological satellite

FENGYUN 1C DEB was lifted into orbit during the mission ‘Long March 4B | Feng Yun 1C’, on board a Long March 4B space rocket.

The launch took place on May 10, 1999, 1:33 a.m. from Launch Complex 7.

For more information about the launch, click the button.

Launch to space Long March 4B | Feng Yun 1C
Long March 4B | Feng Yun 1C

Agency: N/A

Status: Launch Successful

Launch date: May 10, 1999, 1:33 a.m. UTC

Rocket: Long March 4B

Launch pad: Launch Complex 7

Location: Taiyuan Satellite Launch Center, People's Republic of China

...

Latest news about this satellite

There are no fresh news available about this satellite. Check back as we update our databases every day.


Newsletter sign-up

Weekly statistics, charts and insights to help you stay on top of the space industry.